SCP
0 0 0 0 0 0 0 0 0 0 0 0 0 0 0 0 0 0 0 0 0 0 0 0 0 0 0 0 0 0 0 0 0 0 0 0 0 0 0 0 0 0 0 0
0 0 0 0 0 0 0 0 0 0 0 0 0 0 0 0 0 0 0 0 0 0 0 0 0 0 0 0 0 0 0 0 0 0 0 0 0 0 0 0 0 0 0 0
0 0 0 0 0 0 0 0 0 0 0 0 0 0 0 0 0 0 0 0 0 0 0 0 0 0 0 0 0 0 0 0 0 0 0 0 0 0 0 0 0 0 0 0
0 0 0 0 0 0 0 0 0 0 0 0 0 0 0 0 0 0 0 0 0 0 0 0 0 0 0 0 0 0 0 0 0 0 0 0 0 0 0 0 0 0 0 0
0 0 0 0 0 0 0 0 0 0 0 0 0 0 0 0 0 0 0 0 0 0 0 0 0 0 0 0 0 0 0 0 0 0 0 0 0 0 0 0 0 0 0 0
0 0 0 0 0 0 0 0 0 0 0 0 0 0 0 0 0 0 0 0 0 0 0 0 0 0 0 0 0 0 0 0 0 0 0 0 0 0 0 0 0 0 0 0
0 0 0 0 0 0 0 0 0 0 0 0 0 0 0 0 0 0 0 0 0 0 0 0 0 0 0 0 0 0 0 0 0 0 0 0 0 0 0 0 0 0 0 0
0 0 0 0 0 0 0 0 0 0 0 0 0 0 0 0 0 0 0 0 0 0 0 0 0 0 0 0 0 0 0 0 0 0 0 0 0 0 0 0 0 0 0 0
0 0 0 0 0 0 0 0 0 0 0 0 0 0 0 0 0 0 0 0 0 0 0 0 0 0 0 0 0 0 0 0 0 0 0 0 0 0 0 0 0 0 0 0
0 0 0 0 0 0 0 0 0 0 0 0 0 0 0 0 0 0 0 0 0 0 0 0 0 0 0 0 0 0 0 0 0 0 0 0 0 0 0 0 0 0 0 0
0 0 0 0 0 0 0 0 0 0 0 0 0 0 0 0 0 0 0 0 0 0 0 0 0 0 0 0 0 0 0 0 0 0 0 0 0 0 0 0 0 0 0 0
0 0 0 0 0 0 0 0 0 0 0 0 0 0 0 0 0 0 0 0 0 0 0 0 0 0 0 0 0 0 0 0 0 0 0 0 0 0 0 0 0 0 0 0
0 0 0 0 0 0 0 0 0 0 0 0 0 0 0 0 0 0 0 0 0 0 0 0 0 0 0 0 0 0 0 0 0 0 0 0 0 0 0 0 0 0 0 0
0 0 0 0 0 0 0 0 0 0 0 0 0 0 0 0 0 0 0 0 0 0 0 0 0 0 0 0 0 0 0 0 0 0 0 0 0 0 0 0 0 0 0 0
0 0 0 0 0 0 0 0 0 0 0 0 0 0 0 0 0 0 0 0 0 0 0 0 0 0 0 0 0 0 0 0 0 0 0 0 0 0 0 0 0 0 0 0
0 0 0 0 0 0 0 0 0 0 0 0 0 0 0 0 0 0 0 0 0 0 0 0 0 0 0 0 0 0 0 0 0 0 0 0 0 0 0 0 0 0 0 0
0 0 0 0 0 0 0 0 0 0 0 0 0 0 0 0 0 0 0 0 0 0 0 0 0 0 0 0 0 0 0 0 0 0 0 0 0 0 0 0 0 0 0 0
0 0 0 0 0 0 0 0 0 0 0 0 0 0 0 0 0 0 0 0 0 0 0 0 0 0 0 0 0 0 0 0 0 0 0 0 0 0 0 0 0 0 0 0
0 0 0 0 0 0 0 0 0 0 0 0 0 0 0 0 0 0 0 0 0 0 0 0 0 0 0 0 0 0 0 0 0 0 0 0 0 0 0 0 0 0 0 0
0 0 0 0 0 0 0 0 0 0 0 0 0 0 0 0 0 0 0 0 0 0 0 0 0 0 0 0 0 0 0 0 0 0 0 0 0 0 0 0 0 0 0 0
0 0 0 0 0 0 0 0 0 0 0 0 0 0 0 0 0 0 0 0 0 0 0 0 0 0 0 0 0 0 0 0 0 0 0 0 0 0 0 0 0 0 0 0
0 0 0 0 0 0 0 0 0 0 0 0 0 0 0 0 0 0 0 0 0 0 0 0 0 0 0 0 0 0 0 0 0 0 0 0 0 0 0 0 0 0 0 0
0 0 0 0 0 0 0 0 0 0 0 0 0 0 0 0 0 0 0 0 0 0 0 0 0 0 0 0 0 0 0 0 0 0 0 0 0 0 0 0 0 0 0 0
0 0 0 0 0 0 0 0 0 0 0 0 0 0 0 0 0 0 0 0 0 0 0 0 0 0 0 0 0 0 0 0 0 0 0 0 0 0 0 0 0 0 0 0
0 0 0 0 0 0 0 0 0 0 0 0 0 0 0 0 0 0 0 0 0 0 0 0 0 0 0 0 0 0 0 0 0 0 0 0 0 0 0 0 0 0 0 0
0 0 0 0 0 0 0 0 0 0 0 0 0 0 0 0 0 0 0 0 0 0 0 0 0 0 0 0 0 0 0 0 0 0 0 0 0 0 0 0 0 0 0 0
0 0 0 0 0 0 0 0 0 0 0 0 0 0 0 0 0 0 0 0 0 0 0 0 0 0 0 0 0 0 0 0 0 0 0 0 0 0 0 0 0 0 0 0
Wind_Speed_500mb
44 25 16 18 26 43 48 63 26 68 38 48 19 22 34 36 29 35 44 50 62 72 79 83 88 92 96 97 97 96 94 92 90 83 77 73 71 67 61 55 53 50 49 46
54 38 21 16 23 46 60 57 54 61 63 14 23 30 28 56 49 48 54 60 66 70 78 85 93 99 103 103 101 100 98 96 90 84 78 75 72 68 63 59 58 56 53 50
38 33 10 10 69 25 28 42 42 47 73 19 29 25 40 54 59 66 69 69 71 77 81 85 91 98 107 105 104 101 100 95 89 84 81 77 74 70 66 63 61 59 55 56
27 11 29 43 36 50 50 45 38 39 58 23 40 66 78 72 66 70 68 67 71 75 78 81 85 90 96 103 103 100 98 93 89 85 82 78 76 72 69 65 61 54 57 63
14 29 18 19 12 18 25 56 58 56 63 64 67 43 74 63 66 67 63 64 73 73 75 73 72 79 87 90 92 93 95 94 90 88 81 80 78 75 67 63 56 61 69 67
8 19 26 16 7 12 12 33 21 42 56 49 19 18 39 53 60 64 61 55 56 57 59 59 62 67 70 73 78 83 87 89 88 81 86 87 77 69 62 61 65 70 72 66
35 26 9 10 10 21 20 15 1 5 13 19 17 28 19 12 23 32 37 40 38 38 45 46 43 50 55 57 60 54 59 65 70 76 82 78 69 66 67 66 77 69 66 65
14 17 24 22 7 18 7 5 4 5 7 16 26 26 24 23 23 21 23 27 30 32 36 38 39 43 44 43 42 41 41 46 57 65 67 66 68 70 72 68 65 63 64 63
16 9 3 23 5 13 10 8 7 5 8 10 14 13 18 23 25 26 29 31 32 35 40 39 38 40 38 36 34 36 39 40 42 48 53 56 60 60 60 59 61 63 65 64
5 10 9 15 17 16 16 7 6 7 9 16 13 16 20 26 28 28 28 28 30 32 32 32 31 29 25 25 27 29 30 33 36 42 45 48 50 51 53 56 59 61 63 64
7 8 9 26 27 16 10 15 12 10 11 12 13 17 17 24 26 26 26 28 27 28 31 34 36 37 34 31 27 27 28 31 34 36 39 44 47 49 52 53 55 57 59 61
8 10 6 8 33 36 25 15 10 7 9 12 13 16 18 21 24 28 32 34 36 36 36 38 35 30 25 21 21 24 27 31 34 36 38 44 47 49 51 53 56 58 60 63
3 10 12 8 7 48 39 27 13 5 8 14 18 19 25 33 34 33 34 36 37 38 34 28 25 23 22 23 24 25 25 27 30 33 37 42 47 51 53 55 56 57 57 54
9 13 12 8 10 33 30 29 23 22 20 22 26 31 30 30 31 28 29 30 31 29 27 25 24 23 23 24 26 27 29 31 33 34 37 40 43 46 48 49 46 45 45 43
16 10 21 27 26 29 32 29 28 29 29 31 32 30 27 26 24 25 27 31 32 31 30 29 27 28 29 29 30 31 32 34 35 35 37 40 40 40 39 38 37 36 36 39
22 26 30 33 36 35 32 28 28 29 28 30 29 27 25 23 22 24 26 30 33 33 33 34 34 33 32 31 31 31 32 33 35 35 35 34 33 32 32 32 32 33 35 38
30 28 35 38 37 36 36 33 31 29 27 24 22 19 17 18 20 22 26 30 33 34 34 34 33 32 31 30 30 30 30 30 30 29 28 27 26 27 29 31 32 32 33 34
21 25 26 28 29 27 26 24 23 22 20 19 18 16 16 18 17 19 21 23 26 28 29 30 30 28 27 26 25 25 25 24 24 23 23 24 26 28 29 30 31 32 33 33
21 21 21 20 21 20 19 18 16 15 14 14 14 15 15 16 17 19 21 22 23 23 22 22 22 21 22 23 23 23 23 23 24 25 26 27 27 29 30 30 31 33 34 35
20 20 20 19 18 16 15 14 14 13 14 12 11 11 11 12 14 16 17 17 17 18 17 18 18 18 18 18 18 20 22 23 24 24 25 26 27 28 29 31 32 33 35 36
22 22 22 21 21 21 20 19 16 14 14 12 9 9 8 7 6 5 6 6 7 9 10 12 13 16 18 20 21 22 22 22 23 24 25 27 29 30 32 33 33 33 33 33
29 29 31 30 29 31 30 27 23 21 20 18 16 14 12 10 7 4 3 4 7 10 13 14 15 16 18 19 19 21 23 24 26 28 30 32 33 33 32 32 30 30 31 32
37 37 37 35 32 34 35 31 29 25 22 22 19 16 12 9 6 4 2 2 5 9 12 13 14 16 18 20 23 26 29 31 31 32 33 34 33 33 32 31 32 32 32 32
41 39 40 39 35 30 28 31 25 22 19 18 14 12 10 8 7 6 5 4 7 10 13 16 19 23 24 27 28 30 31 32 33 34 34 34 34 35 34 34 35 35 35 35
36 38 36 30 28 30 28 26 20 19 16 12 10 7 6 5 6 6 8 11 14 17 19 22 24 25 26 29 31 32 33 33 33 33 34 35 36 38 38 37 37 37 35 36
31 32 30 26 27 24 21 19 11 11 9 6 4 3 4 5 7 9 12 15 18 21 22 25 27 29 30 32 33 33 34 34 35 36 38 38 40 41 41 41 41 40 38 37
31 28 24 22 21 18 15 11 9 5 3 2 4 5 7 10 12 14 17 20 23 25 27 28 30 31 33 34 36 36 38 39 40 41 42 42 43 44 43 43 42 41 41 40
Wind_Direction_500mb
243 247 191 203 199 203 209 226 207 253 240 255 215 220 239 259 240 221 221 229 229 225 224 221 219 217 214 212 208 207 207 207 209 209 209 209 209 211 211 213 215 216 219 220
252 237 197 228 221 218 213 223 230 251 258 145 215 243 222 241 233 223 231 241 242 233 228 225 222 219 216 214 212 211 211 212 212 212 212 212 213 214 214 216 217 219 224 228
236 236 166 250 238 193 216 224 219 235 246 215 252 231 230 237 239 239 244 248 244 244 239 231 226 222 219 217 215 213 214 214 215 215 216 216 217 218 219 221 222 226 230 234
237 163 224 240 247 226 228 235 225 249 258 229 244 253 254 250 253 250 248 250 252 251 246 241 231 226 223 220 218 217 218 218 219 220 221 221 222 223 224 226 227 233 246 238
222 225 268 281 208 159 182 243 231 231 250 258 252 264 268 261 252 256 261 264 262 256 247 239 232 226 223 222 222 221 223 225 225 224 225 228 227 227 228 233 233 253 245 240
201 228 232 267 193 176 112 244 188 210 238 241 192 239 261 267 267 264 257 252 252 246 237 234 228 223 222 222 222 223 227 229 230 230 236 232 232 232 241 239 250 252 244 244
222 238 270 236 209 145 169 242 172 185 242 159 192 222 249 301 256 248 246 245 238 233 229 223 214 212 210 215 219 220 224 231 237 237 236 236 237 237 240 249 245 246 247 248
222 233 237 159 137 179 201 138 164 207 233 229 230 238 255 244 232 224 217 200 191 190 193 194 193 199 206 216 226 229 232 229 232 233 232 234 236 242 244 244 245 246 247 249
197 213 262 192 318 191 170 151 184 192 218 194 185 187 169 169 168 166 169 173 179 188 189 194 202 208 215 224 223 223 225 225 224 227 229 233 237 241 242 241 241 243 246 249
105 220 227 219 216 218 204 143 142 148 157 170 163 165 172 173 172 178 179 183 185 186 193 193 181 177 185 195 196 201 207 211 216 222 227 232 235 237 237 239 241 245 249 253
258 254 304 264 226 239 198 168 160 158 168 178 177 172 178 174 171 169 167 162 163 162 160 159 158 160 164 172 182 195 204 213 220 226 234 237 234 235 239 243 248 253 257 260
208 173 168 208 235 205 193 173 164 150 159 169 174 180 175 169 161 155 153 152 148 150 153 155 157 164 175 191 207 221 227 230 233 236 239 238 239 243 247 252 254 257 259 261
296 163 125 39 235 195 197 197 192 186 188 174 166 164 164 158 154 153 153 154 158 158 163 170 180 194 207 217 227 232 235 239 243 246 249 250 251 254 256 256 257 258 260 264
242 166 130 144 144 172 194 176 182 176 154 146 137 133 139 145 148 156 162 168 174 180 187 195 206 218 229 237 242 248 252 254 252 249 247 247 249 250 250 253 258 262 266 267
145 181 163 146 141 158 169 169 160 149 146 139 135 135 137 146 160 173 185 195 203 209 215 221 229 239 245 248 251 254 258 259 258 255 254 253 253 254 256 258 259 258 258 259
123 138 139 134 128 134 151 158 162 151 149 150 153 156 165 174 183 194 205 212 218 223 228 235 240 243 246 251 255 260 262 260 258 256 255 253 253 254 257 258 258 258 259 262
140 121 127 124 126 128 129 135 143 147 150 155 158 163 174 188 200 210 217 224 230 234 236 238 242 247 252 257 260 260 259 259 257 254 251 253 256 259 261 264 266 268 270 274
154 145 142 141 134 133 136 143 146 152 160 165 175 184 196 205 213 223 229 233 238 240 243 247 251 253 255 257 260 261 258 255 253 253 254 256 259 261 262 264 266 270 274 278
150 151 148 150 151 153 151 150 153 158 166 179 189 198 205 213 221 229 232 236 237 240 241 246 253 258 260 260 258 257 256 255 254 254 255 255 255 257 260 264 269 274 279 283
143 145 145 149 152 154 161 164 169 172 175 177 191 198 205 208 216 223 227 233 240 248 249 252 256 258 258 256 254 254 254 254 254 255 254 254 256 260 266 271 276 279 280 281
140 138 139 138 140 139 137 135 131 143 144 144 143 154 155 159 171 201 229 245 251 252 250 249 252 253 254 254 255 255 255 254 253 253 256 261 267 270 271 271 272 272 273 276
127 127 123 120 120 117 111 107 108 106 108 110 110 107 108 115 123 142 187 236 229 237 242 240 240 244 245 249 251 254 254 254 258 264 266 264 263 263 264 266 268 270 273 275
124 122 118 117 116 112 109 106 103 99 100 97 95 94 92 87 84 59 359 273 257 248 249 251 252 253 256 259 262 264 267 267 267 266 265 264 264 263 263 265 267 269 271 276
118 118 113 107 104 108 105 97 92 87 78 75 70 65 56 44 22 4 344 294 268 261 258 257 258 260 263 261 261 261 260 261 262 263 263 264 264 265 266 266 269 272 277 281
116 109 104 109 110 98 94 89 84 84 78 73 67 57 37 4 328 308 286 275 267 264 264 265 267 269 267 266 267 267 266 266 265 264 265 265 266 268 270 272 273 274 277 281
112 109 107 106 99 94 91 87 81 80 82 72 56 23 343 319 305 293 288 283 280 278 276 275 275 275 273 271 270 269 268 268 268 268 269 270 271 272 274 274 275 278 279 279
108 101 97 96 95 94 94 93 85 80 64 13 332 318 307 301 295 292 289 286 283 282 280 278 277 276 276 275 273 271 270 269 270 271 272 273 274 276 276 276 275 275 275 276
Wind_Speed_850mb
44 25 16 18 26 43 48 63 26 68 38 48 19 22 34 36 29 35 44 50 62 72 79 83 88 92 96 97 97 96 94 92 90 83 77 73 71 67 61 55 53 50 49 46
54 38 21 16 23 46 60 57 54 61 63 14 23 30 28 56 49 48 54 60 66 70 78 85 93 99 103 103 101 100 98 96 90 84 78 75 72 68 63 59 58 56 53 50
38 33 10 10 69 25 28 42 42 47 73 19 29 25 40 54 59 66 69 69 71 77 81 85 91 98 107 105 104 101 100 95 89 84 81 77 74 70 66 63 61 59 55 56
27 11 29 43 36 50 50 45 38 39 58 23 40 66 78 72 66 70 68 67 71 75 78 81 85 90 96 103 103 100 98 93 89 85 82 78 76 72 69 65 61 54 57 63
14 29 18 19 12 18 25 56 58 56 63 64 67 43 74 63 66 67 63 64 73 73 75 73 72 79 87 90 92 93 95 94 90 88 81 80 78 75 67 63 56 61 69 67
8 19 26 16 7 12 12 33 21 42 56 49 19 18 39 53 60 64 61 55 56 57 59 59 62 67 70 73 78 83 87 89 88 81 86 87 77 69 62 61 65 70 72 66
35 26 9 10 10 21 20 15 1 5 13 19 17 28 19 12 23 32 37 40 38 38 45 46 43 50 55 57 60 54 59 65 70 76 82 78 69 66 67 66 77 69 66 65
14 17 24 22 7 18 7 5 4 5 7 16 26 26 24 23 23 21 23 27 30 32 36 38 39 43 44 43 42 41 41 46 57 65 67 66 68 70 72 68 65 63 64 63
16 9 3 23 5 13 10 8 7 5 8 10 14 13 18 23 25 26 29 31 32 35 40 39 38 40 38 36 34 36 39 40 42 48 53 56 60 60 60 59 61 63 65 64
5 10 9 15 17 16 16 7 6 7 9 16 13 16 20 26 28 28 28 28 30 32 32 32 31 29 25 25 27 29 30 33 36 42 45 48 50 51 53 56 59 61 63 64
7 8 9 26 27 16 10 15 12 10 11 12 13 17 17 24 26 26 26 28 27 28 31 34 36 37 34 31 27 27 28 31 34 36 39 44 47 49 52 53 55 57 59 61
8 10 6 8 33 36 25 15 10 7 9 12 13 16 18 21 24 28 32 34 36 36 36 38 35 30 25 21 21 24 27 31 34 36 38 44 47 49 51 53 56 58 60 63
3 10 12 8 7 48 39 27 13 5 8 14 18 19 25 33 34 33 34 36 37 38 34 28 25 23 22 23 24 25 25 27 30 33 37 42 47 51 53 55 56 57 57 54
9 13 12 8 10 33 30 29 23 22 20 22 26 31 30 30 31 28 29 30 31 29 27 25 24 23 23 24 26 27 29 31 33 34 37 40 43 46 48 49 46 45 45 43
16 10 21 27 26 29 32 29 28 29 29 31 32 30 27 26 24 25 27 31 32 31 30 29 27 28 29 29 30 31 32 34 35 35 37 40 40 40 39 38 37 36 36 39
22 26 30 33 36 35 32 28 28 29 28 30 29 27 25 23 22 24 26 30 33 33 33 34 34 33 32 31 31 31 32 33 35 35 35 34 33 32 32 32 32 33 35 38
30 28 35 38 37 36 36 33 31 29 27 24 22 19 17 18 20 22 26 30 33 34 34 34 33 32 31 30 30 30 30 30 30 29 28 27 26 27 29 31 32 32 33 34
21 25 26 28 29 27 26 24 23 22 20 19 18 16 16 18 17 19 21 23 26 28 29 30 30 28 27 26 25 25 25 24 24 23 23 24 26 28 29 30 31 32 33 33
21 21 21 20 21 20 19 18 16 15 14 14 14 15 15 16 17 19 21 22 23 23 22 22 22 21 22 23 23 23 23 23 24 25 26 27 27 29 30 30 31 33 34 35
20 20 20 19 18 16 15 14 14 13 14 12 11 11 11 12 14 16 17 17 17 18 17 18 18 18 18 18 18 20 22 23 24 24 25 26 27 28 29 31 32 33 35 36
22 22 22 21 21 21 20 19 16 14 14 12 9 9 8 7 6 5 6 6 7 9 10 12 13 16 18 20 21 22 22 22 23 24 25 27 29 30 32 33 33 33 33 33
29 29 31 30 29 31 30 27 23 21 20 18 16 14 12 10 7 4 3 4 7 10 13 14 15 16 18 19 19 21 23 24 26 28 30 32 33 33 32 32 30 30 31 32
37 37 37 35 32 34 35 31 29 25 22 22 19 16 12 9 6 4 2 2 5 9 12 13 14 16 18 20 23 26 29 31 31 32 33 34 33 33 32 31 32 32 32 32
41 39 40 39 35 30 28 31 25 22 19 18 14 12 10 8 7 6 5 4 7 10 13 16 19 23 24 27 28 30 31 32 33 34 34 34 34 35 34 34 35 35 35 35
36 38 36 30 28 30 28 26 20 19 16 12 10 7 6 5 6 6 8 11 14 17 19 22 24 25 26 29 31 32 33 33 33 33 34 35 36 38 38 37 37 37 35 36
31 32 30 26 27 24 21 19 11 11 9 6 4 3 4 5 7 9 12 15 18 21 22 25 27 29 30 32 33 33 34 34 35 36 38 38 40 41 41 41 41 40 38 37
31 28 24 22 21 18 15 11 9 5 3 2 4 5 7 10 12 14 17 20 23 25 27 28 30 31 33 34 36 36 38 39 40 41 42 42 43 44 43 43 42 41 41 40
Wind_Direction_850mb
243 247 191 203 199 203 209 226 207 253 240 255 215 220 239 259 240 221 221 229 229 225 224 221 219 217 214 212 208 207 207 207 209 209 209 209 209 211 211 213 215 216 219 220
252 237 197 228 221 218 213 223 230 251 258 145 215 243 222 241 233 223 231 241 242 233 228 225 222 219 216 214 212 211 211 212 212 212 212 212 213 214 214 216 217 219 224 228
236 236 166 250 238 193 216 224 219 235 246 215 252 231 230 237 239 239 244 248 244 244 239 231 226 222 219 217 215 213 214 214 215 215 216 216 217 218 219 221 222 226 230 234
237 163 224 240 247 226 228 235 225 249 258 229 244 253 254 250 253 250 248 250 252 251 246 241 231 226 223 220 218 217 218 218 219 220 221 221 222 223 224 226 227 233 246 238
222 225 268 281 208 159 182 243 231 231 250 258 252 264 268 261 252 256 261 264 262 256 247 239 232 226 223 222 222 221 223 225 225 224 225 228 227 227 228 233 233 253 245 240
201 228 232 267 193 176 112 244 188 210 238 241 192 239 261 267 267 264 257 252 252 246 237 234 228 223 222 222 222 223 227 229 230 230 236 232 232 232 241 239 250 252 244 244
222 238 270 236 209 145 169 242 172 185 242 159 192 222 249 301 256 248 246 245 238 233 229 223 214 212 210 215 219 220 224 231 237 237 236 236 237 237 240 249 245 246 247 248
222 233 237 159 137 179 201 138 164 207 233 229 230 238 255 244 232 224 217 200 191 190 193 194 193 199 206 216 226 229 232 229 232 233 232 234 236 242 244 244 245 246 247 249
197 213 262 192 318 191 170 151 184 192 218 194 185 187 169 169 168 166 169 173 179 188 189 194 202 208 215 224 223 223 225 225 224 227 229 233 237 241 242 241 241 243 246 249
105 220 227 219 216 218 204 143 142 148 157 170 163 165 172 173 172 178 179 183 185 186 193 193 181 177 185 195 196 201 207 211 216 222 227 232 235 237 237 239 241 245 249 253
258 254 304 264 226 239 198 168 160 158 168 178 177 172 178 174 171 169 167 162 163 162 160 159 158 160 164 172 182 195 204 213 220 226 234 237 234 235 239 243 248 253 257 260
208 173 168 208 235 205 193 173 164 150 159 169 174 180 175 169 161 155 153 152 148 150 153 155 157 164 175 191 207 221 227 230 233 236 239 238 239 243 247 252 254 257 259 261
296 163 125 39 235 195 197 197 192 186 188 174 166 164 164 158 154 153 153 154 158 158 163 170 180 194 207 217 227 232 235 239 243 246 249 250 251 254 256 256 257 258 260 264
242 166 130 144 144 172 194 176 182 176 154 146 137 133 139 145 148 156 162 168 174 180 187 195 206 218 229 237 242 248 252 254 252 249 247 247 249 250 250 253 258 262 266 267
145 181 163 146 141 158 169 169 160 149 146 139 135 135 137 146 160 173 185 195 203 209 215 221 229 239 245 248 251 254 258 259 258 255 254 253 253 254 256 258 259 258 258 259
123 138 139 134 128 134 151 158 162 151 149 150 153 156 165 174 183 194 205 212 218 223 228 235 240 243 246 251 255 260 262 260 258 256 255 253 253 254 257 258 258 258 259 262
140 121 127 124 126 128 129 135 143 147 150 155 158 163 174 188 200 210 217 224 230 234 236 238 242 247 252 257 260 260 259 259 257 254 251 253 256 259 261 264 266 268 270 274
154 145 142 141 134 133 136 143 146 152 160 165 175 184 196 205 213 223 229 233 238 240 243 247 251 253 255 257 260 261 258 255 253 253 254 256 259 261 262 264 266 270 274 278
150 151 148 150 151 153 151 150 153 158 166 179 189 198 205 213 221 229 232 236 237 240 241 246 253 258 260 260 258 257 256 255 254 254 255 255 255 257 260 264 269 274 279 283
143 145 145 149 152 154 161 164 169 172 175 177 191 198 205 208 216 223 227 233 240 248 249 252 256 258 258 256 254 254 254 254 254 255 254 254 256 260 266 271 276 279 280 281
140 138 139 138 140 139 137 135 131 143 144 144 143 154 155 159 171 201 229 245 251 252 250 249 252 253 254 254 255 255 255 254 253 253 256 261 267 270 271 271 272 272 273 276
127 127 123 120 120 117 111 107 108 106 108 110 110 107 108 115 123 142 187 236 229 237 242 240 240 244 245 249 251 254 254 254 258 264 266 264 263 263 264 266 268 270 273 275
124 122 118 117 116 112 109 106 103 99 100 97 95 94 92 87 84 59 359 273 257 248 249 251 252 253 256 259 262 264 267 267 267 266 265 264 264 263 263 265 267 269 271 276
118 118 113 107 104 108 105 97 92 87 78 75 70 65 56 44 22 4 344 294 268 261 258 257 258 260 263 261 261 261 260 261 262 263 263 264 264 265 266 266 269 272 277 281
116 109 104 109 110 98 94 89 84 84 78 73 67 57 37 4 328 308 286 275 267 264 264 265 267 269 267 266 267 267 266 266 265 264 265 265 266 268 270 272 273 274 277 281
112 109 107 106 99 94 91 87 81 80 82 72 56 23 343 319 305 293 288 283 280 278 276 275 275 275 273 271 270 269 268 268 268 268 269 270 271 272 274 274 275 278 279 279
108 101 97 96 95 94 94 93 85 80 64 13 332 318 307 301 295 292 289 286 283 282 280 278 277 276 276 275 273 271 270 269 270 271 272 273 274 276 276 276 275 275 275 276